CZ-4C DEB

Last updated on Sat Aug 02 2025 00:02:06 GMT+0000 (Coordinated Universal Time)

1 64783U 25145C 25213.18754734 .00107129 00000+0 43149-1 0 9998 2 64783 10.9905 253.4541 0031539 149.4413 210.7657 14.25907674 3326

Satellite not in orbit